Location: Unspecified
(0.0000°N, 0.0000°E)
Time: 23:09:29
(UTC+00:00)

Envisat - Pass Details

Date: 16 April 2018
Orbit: 764 x 766 km, 98.2° (Epoch: 26 April)

Event Time Altitude Azimuth Distance (km) Brightness Sun altitude
Exits shadow 18:45:36 12° 75° (ENE) 2,179 4.8 -11.3°
Drops below altitude 10° 18:47:09 10° 57° (ENE) 2,295 5.0 -11.7°
Sets 18:51:05 0° 26° (NNE) 3,216 6.1 -12.6°
